Location: Peebles
(55.6412°N, 3.1714°W)
Time: 04:51:33
(UTC+01:00)

deb NNS O-4 - Pass Details

Date: 28 June 2022
Orbit: 977 x 1074 km, 89.9° (Epoch: 16 August)

Event Time Altitude Azimuth Distance (km) Brightness Sun altitude
Rises 00:29:11 0° 108° (ESE) 3,867 ? -10.4°
Reaches altitude 10° 00:33:08 10° 86° (E) 2,913 ? -10.5°
Maximum altitude 00:36:20 14° 57° (ENE) 2,608 ? -10.6°
Drops below altitude 10° 00:39:33 10° 27° (NNE) 2,906 ? -10.7°
Sets 00:43:27 0° 5° (N) 3,850 ? -10.8°
